Ocala, FL

12:11 PM EDT on August 31, 2016 (GMT -0400)
Ocala Regional-Taylor

Weather History for KOCF - February, 2014

Change the Weather History Date:

Monday, February 17, 2014

  Actual Average Record
Temperature  
Mean Temperature 55 °F -  
Max Temperature 75 °F 71 °F 84 °F (2008)
Min Temperature 35 °F 46 °F 23 °F (2007)
Degree Days  
Heating Degree Days 10    
Growing Degree Days 5 (Base 50)    
Moisture  
Dew Point 31 °F    
Average Humidity 57    
Maximum Humidity 81    
Minimum Humidity 15    
Precipitation  
Precipitation 0.00 in - - ()
Sea Level Pressure  
Sea Level Pressure 30.21 in    
Wind  
Wind Speed 1 mph (South)    
Max Wind Speed 6 mph    
Max Gust Speed -    
Visibility 10 miles    
Events      
Averages and records for this station are not official NWS values.
T = Trace of Precipitation, MM = Missing Value Source: NWS Daily Summary

Daily Weather History Graph

Daily Weather History Graph

Search for Another Location

Airport or City:

Trip Planner

Search our weather history database for the weather conditions in past years. The results will help you decide how hot, cold, wet, or windy it might be!

Date:

Astronomy

Feb. 17, 2014 Rise Set
Actual Time 7:06 AM EST 6:20 PM EST
Civil Twilight 6:41 AM EST 6:44 PM EST
Nautical Twilight 6:14 AM EST 7:12 PM EST
Astronomical Twilight 5:46 AM EST 7:39 PM EST
Moon 8:56 PM EST (2/17) 8:20 AM EST (2/17)
Length of Visible Light 12h 02m
Length of Day
11h 14m
Waning Gibbous, 93% of the Moon is Illuminated
Feb 17
Waning Gibbous
Feb 22
Last Quarter
Mar 1
New
Mar 8
First Quarter
Mar 16
Full

Hourly Weather History & Observations

Time (EST) Temp. Dew Point Humidity Pressure Visibility Wind Dir Wind Speed Gust Speed Precip Events Conditions
12:15 AM 42.8 °F 33.8 °F 70% 30.20 in 10.0 mi Calm Calm - N/A   Clear
12:35 AM 42.8 °F 33.8 °F 70% 30.19 in 10.0 mi Calm Calm - N/A   Clear
12:55 AM 39.2 °F 32.0 °F 75% 30.20 in 10.0 mi Calm Calm - N/A   Clear
1:15 AM 39.2 °F 33.8 °F 81% 30.21 in 10.0 mi Calm Calm - N/A   Clear
1:35 AM 39.2 °F 33.8 °F 81% 30.21 in 10.0 mi Calm Calm - N/A   Clear
1:55 AM 39.2 °F 33.8 °F 81% 30.20 in 10.0 mi Calm Calm - N/A   Clear
2:15 AM 39.2 °F 32.0 °F 75% 30.20 in 10.0 mi Calm Calm - N/A   Clear
2:35 AM 39.2 °F 32.0 °F 75% 30.19 in 10.0 mi Calm Calm - N/A   Clear
2:55 AM 39.2 °F 32.0 °F 75% 30.19 in 10.0 mi Calm Calm - N/A   Clear
3:15 AM 37.4 °F 32.0 °F 81% 30.20 in 10.0 mi Calm Calm - N/A   Clear
3:35 AM 37.4 °F 30.2 °F 75% 30.19 in 10.0 mi Calm Calm - N/A   Clear
3:55 AM 37.4 °F 32.0 °F 81% 30.19 in 10.0 mi Calm Calm - N/A   Clear
4:15 AM 37.4 °F 30.2 °F 75% 30.19 in 10.0 mi Calm Calm - N/A   Clear
4:35 AM 37.4 °F 30.2 °F 75% 30.19 in 10.0 mi Calm Calm - N/A   Clear
4:55 AM 37.4 °F 30.2 °F 75% 30.20 in 10.0 mi Calm Calm - N/A   Clear
5:15 AM 37.4 °F 30.2 °F 75% 30.20 in 10.0 mi Calm Calm - N/A   Clear
5:35 AM 37.4 °F 30.2 °F 75% 30.21 in 10.0 mi Calm Calm - N/A   Clear
5:55 AM 37.4 °F 30.2 °F 75% 30.21 in 10.0 mi Calm Calm - N/A   Clear
6:15 AM 37.4 °F 30.2 °F 75% 30.21 in 10.0 mi Calm Calm - N/A   Clear
6:35 AM 37.4 °F 28.4 °F 70% 30.22 in 10.0 mi Calm Calm - N/A   Clear
6:50 AM 35.6 °F 28.4 °F 75% 30.22 in 10.0 mi Calm Calm - N/A   Clear
7:50 AM 37.4 °F 30.2 °F 75% 30.24 in 10.0 mi Calm Calm - N/A   Clear
8:50 AM 48.2 °F 39.2 °F 71% 30.26 in 10.0 mi Calm Calm - N/A   Clear
9:50 AM 59.0 °F 44.6 °F 59% 30.26 in 10.0 mi Calm Calm - N/A   Clear
10:50 AM 64.4 °F 42.8 °F 45% 30.26 in 10.0 mi ENE 4.6 mph - N/A   Clear
11:50 AM 68.0 °F 33.8 °F 28% 30.24 in 10.0 mi South 5.8 mph - N/A   Clear
12:50 PM 71.6 °F 30.2 °F 22% 30.22 in 10.0 mi South 5.8 mph - N/A   Clear
1:50 PM 73.4 °F 30.2 °F 20% 30.19 in 10.0 mi SE 5.8 mph - N/A   Clear
2:50 PM 73.4 °F 26.6 °F 18% 30.18 in 10.0 mi SSE 5.8 mph - N/A   Clear
3:50 PM 75.2 °F 26.6 °F 17% 30.17 in 10.0 mi SW 5.8 mph - N/A   Clear
4:50 PM 75.2 °F 24.8 °F 15% 30.16 in 10.0 mi North - - N/A   Clear
5:50 PM 73.4 °F 24.8 °F 16% 30.18 in 10.0 mi SW 5.8 mph - N/A   Clear
6:50 PM 66.2 °F 35.6 °F 32% 30.20 in 10.0 mi West 5.8 mph - N/A   Clear
7:55 PM 57.2 °F 32.0 °F 38% 30.21 in 10.0 mi Calm Calm - N/A   Clear
8:15 PM 57.2 °F 30.2 °F 36% 30.21 in 10.0 mi Calm Calm - N/A   Clear
8:35 PM 53.6 °F 32.0 °F 44% 30.21 in 10.0 mi Calm Calm - N/A   Clear
8:55 PM 51.8 °F 30.2 °F 44% 30.21 in 10.0 mi South 3.5 mph - N/A   Clear
9:15 PM 51.8 °F 30.2 °F 44% 30.22 in 10.0 mi South 3.5 mph - N/A   Clear
9:35 PM 50.0 °F 28.4 °F 43% 30.21 in 10.0 mi Calm Calm - N/A   Clear
9:55 PM 48.2 °F 28.4 °F 46% 30.21 in 10.0 mi Calm Calm - N/A   Clear
10:15 PM 48.2 °F 32.0 °F 54% 30.21 in 10.0 mi South 3.5 mph - N/A   Clear
10:35 PM 48.2 °F 30.2 °F 50% 30.21 in 10.0 mi Calm Calm - N/A   Clear
10:55 PM 48.2 °F 30.2 °F 50% 30.22 in 10.0 mi Calm Calm - N/A   Clear
11:15 PM 46.4 °F 30.2 °F 53% 30.22 in 10.0 mi Calm Calm - N/A   Clear
11:35 PM 44.6 °F 30.2 °F 57% 30.21 in 10.0 mi Calm Calm - N/A   Clear
11:55 PM 44.6 °F 30.2 °F 57% 30.21 in 10.0 mi Calm Calm - N/A   Clear